Wind_Speed
40 40 40 40 40 40 41 40 40 40 40 40 40 40 40 40 40 41 43 44 46 47 47 48 49 48 47 48 47 47 48 47 47 47 48 47 48 48 51 53 54 54 54
38 38 38 38 38 38 38 38 38 38 37 37 37 37 38 38 39 40 41 42 44 44 45 44 43 42 42 42 42 41 40 41 42 42 44 44 44 45 46 48 50 51 52
35 35 36 36 36 36 36 35 35 35 35 35 35 36 37 38 38 39 40 40 41 41 41 40 38 37 37 37 37 36 35 35 35 35 37 39 40 42 43 44 46 48 50
32 32 33 33 33 33 33 33 32 32 33 33 34 35 36 36 37 38 38 38 37 37 37 36 34 33 33 33 32 31 30 30 32 32 33 34 36 39 41 43 45 47 49
29 29 29 29 30 30 30 30 30 31 31 32 33 34 34 34 35 35 35 35 34 34 33 32 31 30 30 29 29 27 26 26 26 27 29 30 32 34 37 39 42 44 46
25 25 25 26 26 27 27 28 28 29 30 31 31 32 32 33 33 33 32 32 31 30 30 29 28 27 27 26 25 25 24 23 23 24 25 27 29 33 35 38 40 42 44
22 22 23 23 24 24 25 25 26 27 28 29 29 29 30 30 30 30 30 29 28 27 26 26 25 25 24 24 24 23 23 23 23 24 24 26 28 31 34 36 38 41 43
20 20 21 21 21 22 22 23 24 25 26 26 27 27 28 28 28 28 27 27 26 25 25 24 24 24 24 24 24 25 24 25 25 26 27 28 30 32 34 37 39 42 44
18 18 18 18 19 20 20 21 22 23 24 25 26 26 26 27 27 26 26 25 25 25 25 25 25 25 25 26 26 26 26 27 28 29 30 32 34 35 37 40 42 45 47
16 16 17 17 18 18 19 21 22 23 24 24 25 25 26 26 26 25 25 25 25 25 26 26 26 27 27 27 28 29 30 31 32 33 35 36 38 39 41 43 46 48 50
16 16 16 17 18 19 20 21 22 23 24 24 25 25 26 26 25 25 26 26 26 27 27 28 28 29 29 30 31 32 33 34 35 37 38 40 41 43 45 47 48 50 52
16 16 17 17 18 19 21 22 23 24 24 25 26 26 26 26 26 26 27 27 28 29 29 30 31 31 32 33 34 35 36 37 39 40 41 43 44 46 47 49 50 52 53
17 18 18 19 20 21 22 23 24 24 25 26 26 27 27 27 27 28 28 29 30 30 31 32 33 34 34 35 36 37 38 40 41 42 44 45 47 48 49 51 51 52 52
19 19 20 20 21 22 23 24 24 25 26 26 27 28 28 29 29 30 30 31 31 32 33 34 35 35 36 37 38 39 41 42 44 45 47 48 49 49 50 51 51 52 52
21 21 21 22 23 24 25 25 25 26 27 27 28 29 29 30 30 31 31 32 32 33 34 35 36 37 38 39 40 41 43 44 46 48 49 50 50 51 51 52 52 51 51
24 23 24 24 25 25 26 26 27 27 28 28 29 29 30 30 31 31 32 33 33 34 35 36 37 38 40 41 42 44 45 47 49 50 51 51 51 52 53 53 51 51 50
26 27 27 27 27 27 28 28 28 29 29 29 30 30 31 31 32 33 33 34 34 35 36 38 39 40 41 43 44 46 48 50 51 52 53 53 53 53 53 52 51 50 49
29 29 29 29 30 30 30 30 30 30 30 31 31 31 32 33 34 34 34 35 35 36 38 39 40 42 43 45 47 49 51 52 53 54 54 54 54 53 52 51 50 49 48
31 31 31 31 31 31 31 31 31 32 32 32 32 33 33 34 35 35 36 36 37 38 39 41 42 43 45 47 49 51 52 53 54 54 54 54 53 52 51 50 49 48 47
33 33 33 33 33 33 33 32 32 33 33 34 34 34 35 36 36 36 37 37 38 40 41 42 43 45 46 48 50 52 53 54 54 54 54 53 52 51 50 49 48 46 45
35 35 34 34 34 34 34 33 33 34 34 34 35 35 36 37 37 37 38 39 40 41 42 43 44 46 48 50 52 53 54 54 54 54 53 53 51 50 49 48 46 45 43
34 34 34 34 34 34 34 34 34 34 35 35 35 36 37 37 37 38 39 40 41 42 43 44 46 48 49 51 53 53 54 54 54 53 53 51 50 49 48 46 44 43 41
34 34 33 34 34 35 35 35 35 36 36 36 37 37 38 38 38 39 40 41 42 43 43 45 47 49 51 52 53 53 53 53 53 52 51 49 48 47 45 43 42 40 39
33 33 33 34 34 34 34 35 35 36 37 37 38 38 38 38 39 39 40 41 42 43 45 47 48 50 51 53 53 54 53 52 51 50 49 47 45 44 43 41 40 39 37
32 32 32 33 33 33 34 34 35 36 37 37 37 37 38 38 39 40 41 42 43 45 46 48 49 50 51 52 53 53 52 51 50 48 47 45 44 43 41 40 38 36 36
30 31 31 31 31 32 33 33 34 35 35 36 36 36 38 39 39 40 41 42 44 46 47 48 49 50 51 52 53 52 51 50 49 48 47 45 43 42 40 38 36 35 35
Wind_Direction
260 262 264 266 268 271 273 274 276 277 278 280 281 282 285 287 290 292 294 296 298 298 298 299 298 296 294 292 290 287 281 278 275 270 266 265 262 260 259 260 259 261 264
261 263 265 267 269 271 273 274 276 277 279 281 282 284 286 289 293 295 297 299 301 302 303 302 301 301 299 297 294 292 286 281 279 274 270 268 266 263 262 262 263 263 266
262 264 266 268 269 271 273 275 277 278 279 282 284 285 288 291 294 297 299 301 303 304 306 305 305 306 304 303 301 297 293 286 281 277 274 272 270 268 266 265 266 267 268
262 264 266 268 270 272 273 275 277 279 281 284 286 288 290 293 295 298 301 303 304 306 307 306 307 308 308 307 305 302 298 291 285 282 279 274 271 270 269 269 271 271 271
263 265 267 269 271 273 274 276 278 281 284 286 288 290 292 294 297 299 302 303 305 306 307 307 308 309 310 309 308 307 304 299 293 287 281 277 274 274 274 274 274 274 275
263 265 267 269 272 274 276 278 280 283 286 288 290 291 293 295 298 300 302 304 305 306 308 309 310 311 312 313 313 311 307 305 302 297 290 283 280 278 278 277 277 277 278
263 265 268 271 274 276 279 281 284 286 289 290 292 293 295 297 299 301 302 304 306 307 309 310 312 312 312 314 314 313 310 308 305 300 296 292 287 284 283 283 282 282 283
263 266 269 273 276 279 281 284 286 289 291 293 294 296 298 299 300 301 302 303 304 307 308 309 311 313 313 312 312 311 308 306 304 302 299 296 293 291 289 288 287 286 286
262 266 270 274 278 280 283 286 289 291 293 295 296 298 299 301 301 301 302 303 305 307 308 309 310 311 311 310 309 309 307 305 304 302 300 297 295 293 291 290 289 289 289
263 268 272 276 279 282 284 288 291 294 295 297 298 299 300 301 302 302 302 304 306 308 308 308 308 309 308 308 307 307 306 305 304 302 300 298 296 294 293 292 292 292 292
264 269 273 276 279 282 286 289 292 295 296 297 298 299 300 301 302 303 303 304 306 307 308 308 308 309 308 307 307 306 306 305 304 303 301 300 299 297 296 295 295 295 294
265 270 274 278 281 283 286 289 292 294 296 297 298 299 301 302 303 304 304 304 305 306 308 308 308 308 308 308 307 307 307 306 305 304 303 302 301 300 299 298 298 297 296
266 270 275 279 282 284 287 290 292 294 295 297 298 300 302 303 304 304 304 304 305 306 307 308 308 308 308 308 308 307 307 307 306 305 304 304 303 302 301 301 300 299 297
268 272 275 279 282 285 287 290 292 294 295 297 299 300 302 303 304 304 305 305 306 307 307 308 308 308 309 308 308 308 308 308 308 307 306 306 305 304 303 302 301 299 298
268 272 276 279 281 284 287 289 291 293 295 297 298 300 301 302 303 304 305 306 306 307 308 309 309 309 310 310 309 309 310 310 310 309 309 308 307 305 305 303 302 300 299
268 272 276 279 281 284 286 288 290 293 294 296 298 299 301 302 303 304 304 305 305 306 308 309 310 310 310 311 311 311 311 312 312 311 310 309 308 307 306 304 302 300 299
269 272 275 278 281 283 285 286 289 291 293 295 297 299 300 301 303 303 304 305 306 307 308 309 310 310 311 312 312 313 313 314 313 313 312 310 309 308 307 305 303 301 300
269 272 275 277 280 282 284 285 287 290 292 294 296 298 300 302 303 304 304 304 305 306 308 309 310 310 311 312 313 314 314 314 314 314 313 312 311 309 308 306 304 303 301
269 271 274 277 279 281 283 284 286 288 290 293 295 298 300 301 303 304 304 304 305 306 307 308 310 310 312 313 314 315 315 315 315 315 315 313 312 311 309 307 306 304 303
268 271 273 276 278 280 282 283 285 287 290 292 294 297 299 300 302 303 303 304 305 306 307 308 310 311 312 313 314 315 316 316 316 316 316 315 314 312 310 309 307 305 304
269 271 272 275 277 279 281 282 284 286 289 291 293 296 298 300 301 302 303 304 305 306 307 308 310 311 312 314 315 316 316 317 317 317 316 316 315 313 311 310 308 306 305
270 271 273 274 277 279 280 281 283 285 288 290 293 296 298 299 300 301 302 303 305 306 307 309 310 312 313 314 315 316 317 317 317 318 317 316 316 314 313 311 310 308 306
271 272 273 275 276 278 279 280 282 284 287 289 292 295 297 298 300 301 303 304 305 306 308 310 311 312 314 315 316 317 317 317 318 318 318 317 316 315 314 313 312 310 309
271 272 273 275 277 278 279 280 282 284 286 288 291 294 296 298 300 302 303 304 305 307 309 311 312 313 314 315 316 317 317 317 318 318 319 318 317 316 315 314 313 311 310
272 273 274 275 276 278 279 281 282 284 287 289 292 294 296 298 300 302 304 305 306 308 310 312 313 314 315 316 317 318 318 318 319 319 319 319 318 317 315 314 313 312 311
272 273 275 276 277 279 280 282 284 286 288 290 292 295 297 299 301 303 304 306 308 310 311 312 314 315 316 317 318 318 318 319 319 320 320 319 318 317 316 314 313 311 310
Height
5735 5735 5735 5735 5735 5734 5733 5731 5730 5728 5726 5724 5721 5719 5716 5712 5709 5705 5700 5695 5689 5682 5676 5669 5662 5655 5649 5644 5639 5634 5630 5626 5625 5626 5626 5627 5628 5631 5633 5635 5638 5640 5641
5725 5725 5726 5725 5725 5724 5723 5722 5720 5718 5716 5714 5712 5709 5706 5702 5699 5694 5689 5684 5677 5671 5664 5657 5650 5644 5638 5633 5628 5623 5619 5616 5614 5613 5614 5615 5616 5618 5620 5623 5625 5626 5628
5716 5716 5716 5716 5715 5715 5714 5712 5711 5709 5707 5705 5702 5699 5696 5693 5689 5684 5679 5673 5667 5660 5654 5647 5641 5635 5629 5624 5619 5614 5610 5607 5605 5604 5604 5605 5606 5608 5609 5612 5613 5615 5616
5707 5707 5707 5707 5706 5705 5704 5703 5701 5700 5698 5695 5693 5690 5687 5683 5679 5674 5669 5663 5657 5651 5645 5639 5633 5627 5622 5617 5612 5607 5603 5600 5598 5597 5596 5597 5598 5599 5600 5601 5602 5603 5603
5699 5699 5698 5698 5697 5696 5695 5694 5692 5691 5689 5686 5684 5681 5677 5674 5669 5665 5660 5654 5649 5643 5637 5632 5626 5621 5616 5611 5606 5602 5598 5595 5593 5591 5590 5590 5590 5591 5591 5591 5591 5591 5590
5691 5691 5690 5690 5689 5688 5687 5685 5684 5682 5680 5678 5675 5672 5668 5664 5660 5656 5651 5646 5641 5636 5631 5626 5620 5616 5611 5606 5602 5598 5594 5591 5588 5586 5585 5584 5583 5583 5583 5582 5581 5580 5579
5683 5683 5683 5682 5681 5680 5679 5677 5676 5674 5672 5669 5666 5663 5660 5656 5652 5648 5643 5639 5634 5629 5625 5620 5615 5611 5606 5602 5598 5594 5590 5587 5585 5582 5580 5578 5577 5576 5574 5573 5571 5569 5567
5676 5676 5676 5675 5674 5673 5672 5670 5668 5666 5664 5662 5659 5655 5652 5648 5644 5640 5636 5632 5628 5623 5619 5615 5610 5606 5602 5597 5594 5590 5586 5583 5580 5577 5575 5572 5570 5568 5565 5563 5560 5557 5554
5669 5669 5669 5668 5667 5666 5665 5663 5661 5659 5657 5654 5651 5648 5645 5641 5637 5633 5630 5626 5622 5618 5614 5609 5605 5601 5597 5593 5589 5585 5582 5578 5574 5571 5568 5565 5561 5558 5555 5552 5548 5545 5541
5663 5663 5662 5662 5661 5660 5658 5657 5655 5653 5650 5647 5644 5641 5638 5635 5631 5627 5623 5620 5616 5612 5608 5604 5600 5595 5591 5587 5583 5579 5575 5571 5567 5563 5560 5556 5552 5548 5544 5540 5535 5531 5526
5657 5657 5656 5656 5655 5653 5652 5650 5648 5646 5643 5641 5638 5635 5632 5628 5624 5621 5617 5613 5609 5605 5601 5597 5593 5589 5585 5580 5576 5572 5568 5563 5559 5554 5550 5545 5541 5536 5531 5526 5521 5516 5510
5651 5651 5650 5649 5649 5647 5646 5644 5642 5639 5637 5634 5631 5628 5625 5621 5618 5614 5610 5606 5603 5599 5595 5590 5586 5582 5577 5573 5568 5564 5559 5554 5549 5544 5539 5534 5529 5523 5518 5512 5506 5500 5493
5645 5645 5644 5643 5642 5641 5639 5637 5635 5633 5630 5627 5624 5621 5618 5614 5610 5607 5603 5599 5595 5591 5587 5583 5578 5574 5569 5564 5559 5554 5549 5544 5538 5533 5527 5522 5516 5509 5503 5497 5490 5484 5477
5639 5638 5638 5637 5635 5634 5632 5630 5628 5626 5623 5620 5617 5614 5610 5607 5603 5599 5595 5592 5588 5583 5579 5575 5570 5565 5560 5555 5550 5544 5539 5533 5527 5521 5515 5508 5502 5495 5488 5482 5475 5468 5462
5632 5632 5631 5630 5628 5627 5625 5623 5621 5618 5616 5613 5610 5606 5603 5599 5596 5592 5588 5584 5580 5575 5571 5566 5561 5556 5551 5545 5540 5534 5528 5521 5515 5508 5501 5494 5487 5480 5473 5466 5459 5452 5446
5625 5624 5623 5622 5621 5619 5617 5615 5613 5611 5608 5605 5602 5599 5595 5592 5588 5584 5580 5576 5571 5567 5562 5557 5552 5546 5541 5535 5529 5523 5516 5509 5502 5495 5487 5480 5472 5465 5457 5450 5443 5437 5430
5617 5616 5615 5614 5613 5611 5609 5607 5605 5603 5600 5597 5594 5591 5587 5584 5580 5576 5571 5567 5562 5558 5553 5548 5542 5537 5531 5524 5518 5511 5504 5496 5489 5481 5473 5465 5457 5449 5441 5434 5427 5421 5415
5608 5608 5607 5606 5604 5602 5601 5599 5597 5594 5592 5589 5586 5582 5579 5575 5571 5567 5563 5558 5554 5549 5544 5538 5533 5526 5520 5513 5506 5499 5491 5483 5475 5467 5458 5450 5442 5434 5426 5419 5412 5405 5399
5599 5599 5598 5597 5595 5594 5592 5590 5588 5585 5583 5580 5577 5574 5570 5566 5562 5558 5554 5549 5544 5539 5534 5529 5522 5516 5509 5502 5495 5487 5479 5471 5462 5453 5444 5436 5427 5419 5411 5404 5397 5390 5384
5590 5589 5588 5587 5586 5584 5583 5581 5579 5576 5574 5571 5568 5564 5561 5557 5553 5549 5545 5540 5535 5530 5524 5518 5512 5505 5499 5491 5483 5475 5466 5458 5449 5440 5431 5422 5413 5405 5398 5390 5383 5376 5370
5580 5579 5578 5577 5576 5575 5573 5571 5569 5567 5564 5562 5559 5555 5552 5548 5544 5539 5535 5530 5525 5520 5514 5508 5501 5494 5487 5480 5471 5463 5454 5445 5436 5427 5418 5409 5400 5392 5384 5377 5370 5363 5357
5570 5569 5568 5568 5566 5565 5563 5562 5560 5557 5555 5552 5549 5546 5542 5538 5534 5530 5525 5520 5515 5509 5503 5497 5490 5483 5476 5468 5459 5451 5441 5432 5423 5415 5405 5396 5387 5379 5371 5364 5357 5351 5345
5560 5559 5559 5558 5556 5555 5553 5552 5550 5548 5545 5542 5539 5536 5532 5528 5524 5520 5515 5510 5504 5499 5492 5486 5479 5471 5464 5456 5447 5439 5430 5421 5412 5403 5394 5385 5376 5368 5360 5353 5346 5340 5334
5550 5549 5549 5548 5546 5545 5543 5542 5540 5538 5535 5532 5529 5526 5522 5518 5514 5510 5505 5499 5494 5488 5481 5475 5468 5460 5452 5443 5435 5426 5418 5409 5400 5392 5383 5375 5366 5357 5350 5343 5336 5330 5324
5540 5539 5538 5538 5536 5535 5533 5532 5530 5528 5525 5522 5519 5516 5512 5508 5504 5499 5494 5489 5483 5477 5470 5464 5456 5449 5440 5432 5423 5414 5405 5397 5388 5380 5372 5364 5356 5348 5340 5334 5327 5321 5315
5530 5529 5529 5528 5527 5525 5524 5522 5520 5518 5515 5512 5509 5506 5502 5498 5494 5489 5484 5478 5472 5466 5459 5452 5445 5437 5429 5420 5411 5402 5394 5385 5377 5368 5361 5353 5346 5338 5330 5324 5318 5312 5306